(2021 AR6) |
Classification: Amor [NEO] SPK-ID: 54105989 |
[ hide orbit diagram ]
For accurate long-term ephemerides, please instead use our Horizons system.This orbit viewer was implemented using two-body methods, and hence should not be used for determining accurate long-term trajectories (over several years or decades) or planetary encounter circumstances.
Orbital Elements at Epoch 2459229.5 (2021-Jan-15.0) TDB
Reference: JPL 3 (heliocentric ecliptic J2000)
Element | Value | Uncertainty (1-sigma) | Units |
e | .3227601033766596 | 0.0012017 | |
a | 1.512309016664499 | 0.0028396 | au |
q | 1.024196002108411 | 0.00010573 | au |
i | 19.15023134330742 | 0.043423 | deg |
node | 297.4819455153261 | 0.0035528 | deg |
peri | 185.7252536946241 | 0.0029439 | deg |
M | 356.5548023354156 | 0.011555 | deg |
tp | 2459236.000861035394 (2021-Jan-21.50086104) | 0.0039326 | TDB |
period | 679.2962844482137 1.86 | 1.9132 0.005238 | d yr |
n | .5299602077058685 | 0.0014926 | deg/d |
Q | 2.000422031220588 | 0.0037561 | au |
|
| | Orbit Determination Parameters
Additional Information
|
[ hide covariance matrix ]
Orbit Covariance (6×6)
|
|
e |
q |
tp |
node |
peri |
i |
e |
1.444142912980351E-6 |
1.270510954048474E-7 |
-4.0904323153327E-6 |
4.269220478814182E-6 |
-2.430008120428128E-6 |
5.217815082992201E-5 |
q |
1.270510954048474E-7 |
1.117777765982047E-8 |
-3.59920735142884E-7 |
3.755987946427657E-7 |
-2.138498893119051E-7 |
4.590541084408753E-6 |
tp |
-4.0904323153327E-6 |
-3.59920735142884E-7 |
1.546535710018662E-5 |
-1.201727887715296E-5 |
1.109694656482539E-5 |
-.0001468443412087302 |
node |
4.269220478814182E-6 |
3.755987946427657E-7 |
-1.201727887715296E-5 |
1.262261245342337E-5 |
-7.102418128563753E-6 |
.0001542713218918139 |
peri |
-2.430008120428128E-6 |
-2.138498893119051E-7 |
1.109694656482539E-5 |
-7.102418128563753E-6 |
8.666644131294191E-6 |
-8.677073473164283E-5 |
i |
5.217815082992201E-5 |
4.590541084408753E-6 |
-.0001468443412087302 |
.0001542713218918139 |
-8.677073473164283E-5 |
.00188552010478546 |
|
Physical Parameter Table
Parameter |
Symbol |
Value |
Units |
Sigma |
Reference |
Notes |
absolute magnitude |
H |
25.23 |
|
.47761 |
E2021B55 |
autocmod 2.8 |
|
[ show close-approach data ]
|